DKH2162 ZYMD-ZYHB

Flight info

Callsign DKH2162
Flight time 0h 50m
Altitude 19700
Route UGA19D UGABI B451 KETOV KET08A
Aircraft A20N/M-SDE2E3FGHIRWXY/LB1

Departure

Time 2026-04-21 10:51
Airport Mudanjiang Hailang International Airport (ZYMD)

Arrival

Time 2026-04-21 11:41
Airport Harbin Taiping International Airport (ZYHB)
Time Latitude Longitude Altitude Speed Heading
2026-04-21 10:22 44.45720 130.84405 1408 ft 0 kts 32°
2026-04-21 10:32 44.45702 130.84389 1408 ft 3 kts 32°
2026-04-21 10:32 44.45679 130.84370 1408 ft 3 kts 32°
2026-04-21 10:33 44.45667 130.84341 1408 ft 3 kts 85°
2026-04-21 10:33 44.45672 130.84315 1408 ft 0 kts 123°
2026-04-21 10:37 44.45671 130.84319 1408 ft 0 kts 123°
2026-04-21 10:38 44.45662 130.84337 1408 ft 3 kts 119°
2026-04-21 10:38 44.45652 130.84383 1408 ft 6 kts 101°
2026-04-21 10:38 44.45629 130.84454 1408 ft 9 kts 121°
2026-04-21 10:38 44.45582 130.84518 1408 ft 9 kts 185°
2026-04-21 10:39 44.45525 130.84476 1408 ft 11 kts 212°
2026-04-21 10:39 44.45500 130.84454 1408 ft 11 kts 212°
2026-04-21 10:39 44.45428 130.84390 1408 ft 12 kts 212°
2026-04-21 10:39 44.45368 130.84447 1408 ft 13 kts 120°
2026-04-21 10:40 44.45313 130.84572 1408 ft 16 kts 121°
2026-04-21 10:40 44.45245 130.84723 1408 ft 19 kts 122°
2026-04-21 10:40 44.45169 130.84897 1408 ft 22 kts 121°
2026-04-21 10:40 44.45085 130.85097 1408 ft 24 kts 123°
2026-04-21 10:41 44.44988 130.85303 1408 ft 26 kts 123°
2026-04-21 10:41 44.44889 130.85524 1408 ft 21 kts 122°
2026-04-21 10:41 44.44863 130.85628 1408 ft 9 kts 85°
2026-04-21 10:41 44.44853 130.85704 1408 ft 8 kts 145°
2026-04-21 10:42 44.44826 130.85666 1408 ft 8 kts 293°
2026-04-21 10:42 44.44840 130.85632 1408 ft 0 kts 302°
2026-04-21 10:42 44.44840 130.85631 1408 ft 0 kts 302°
2026-04-21 10:42 44.44878 130.85547 1408 ft 41 kts 302°
2026-04-21 10:43 44.45171 130.84886 1409 ft 115 kts 302°
2026-04-21 10:43 44.45692 130.83723 1590 ft 155 kts 302°
2026-04-21 10:43 44.46255 130.82475 2342 ft 153 kts 302°
2026-04-21 10:43 44.46781 130.81297 3288 ft 142 kts 296°
2026-04-21 10:44 44.47031 130.79962 3866 ft 152 kts 276°
2026-04-21 10:44 44.46937 130.78387 4354 ft 170 kts 268°
2026-04-21 10:44 44.46927 130.76701 4905 ft 181 kts 276°
2026-04-21 10:44 44.46984 130.74866 5411 ft 200 kts 276°
2026-04-21 10:45 44.47060 130.72844 5958 ft 218 kts 276°
2026-04-21 10:45 44.47144 130.70668 6618 ft 233 kts 276°
2026-04-21 10:45 44.47235 130.68413 7608 ft 235 kts 276°
2026-04-21 10:45 44.47326 130.66174 8674 ft 234 kts 276°
2026-04-21 10:46 44.47419 130.63942 9752 ft 232 kts 276°
2026-04-21 10:46 44.47512 130.61716 10711 ft 234 kts 276°
2026-04-21 10:46 44.47610 130.59412 11350 ft 246 kts 275°
2026-04-21 10:46 44.47715 130.56953 11704 ft 264 kts 276°
2026-04-21 10:47 44.47829 130.54275 12028 ft 285 kts 275°
2026-04-21 10:47 44.47945 130.51498 12660 ft 295 kts 275°
2026-04-21 10:47 44.48064 130.48639 13507 ft 297 kts 275°
2026-04-21 10:47 44.48184 130.45758 14383 ft 299 kts 275°
2026-04-21 10:48 44.48301 130.42862 15110 ft 301 kts 275°
2026-04-21 10:48 44.48420 130.39935 15552 ft 302 kts 276°
2026-04-21 10:48 44.48539 130.37019 15673 ft 303 kts 275°
2026-04-21 10:48 44.48658 130.34073 15679 ft 305 kts 275°
2026-04-21 10:49 44.48778 130.31107 15688 ft 305 kts 275°
2026-04-21 10:49 44.48896 130.28139 15695 ft 305 kts 275°
2026-04-21 10:49 44.49014 130.25197 15703 ft 305 kts 275°
2026-04-21 10:49 44.49129 130.22249 15685 ft 304 kts 275°
2026-04-21 10:50 44.49245 130.19252 15773 ft 310 kts 275°
2026-04-21 10:50 44.49361 130.16246 16517 ft 313 kts 275°
2026-04-21 10:50 44.49477 130.13251 17385 ft 312 kts 275°
2026-04-21 10:50 44.49595 130.10205 18145 ft 314 kts 275°
2026-04-21 10:51 44.49588 130.07181 18820 ft 319 kts 269°
2026-04-21 10:51 44.49186 130.04103 19217 ft 326 kts 261°
2026-04-21 10:51 44.48416 130.01088 19298 ft 330 kts 253°
2026-04-21 10:51 44.47374 129.98291 19307 ft 317 kts 251°
2026-04-21 10:52 44.46458 129.95573 19311 ft 301 kts 256°
2026-04-21 10:52 44.45844 129.92842 19315 ft 296 kts 263°
2026-04-21 10:52 44.45520 129.89987 19325 ft 292 kts 270°
2026-04-21 10:52 44.45490 129.87203 19319 ft 289 kts 275°
2026-04-21 10:53 44.45565 129.84383 19323 ft 288 kts 275°
2026-04-21 10:53 44.45652 129.81575 19329 ft 289 kts 275°
2026-04-21 10:53 44.45743 129.78793 19330 ft 290 kts 276°
2026-04-21 10:53 44.45840 129.75958 19337 ft 290 kts 275°
2026-04-21 10:54 44.45936 129.73155 19337 ft 289 kts 276°
2026-04-21 10:54 44.46034 129.70390 19337 ft 289 kts 276°
2026-04-21 10:54 44.46135 129.67584 19332 ft 288 kts 276°
2026-04-21 10:54 44.46234 129.64784 19332 ft 289 kts 275°
2026-04-21 10:55 44.46333 129.61986 19345 ft 289 kts 276°
2026-04-21 10:55 44.46450 129.59169 19329 ft 289 kts 278°
2026-04-21 10:55 44.46694 129.56389 19334 ft 288 kts 281°
2026-04-21 10:55 44.47070 129.53635 19343 ft 289 kts 283°
2026-04-21 10:56 44.47564 129.50943 19342 ft 288 kts 287°
2026-04-21 10:56 44.48342 129.48367 19345 ft 289 kts 296°
2026-04-21 10:56 44.49462 129.45990 19349 ft 294 kts 303°
2026-04-21 10:56 44.50857 129.43898 19344 ft 299 kts 311°
2026-04-21 10:57 44.52485 129.42033 19347 ft 300 kts 313°
2026-04-21 10:57 44.53977 129.40073 19348 ft 296 kts 307°
2026-04-21 10:57 44.55228 129.37784 19352 ft 291 kts 298°
2026-04-21 10:57 44.56158 129.35290 19353 ft 289 kts 291°
2026-04-21 10:58 44.56818 129.32654 19358 ft 289 kts 287°
2026-04-21 10:58 44.57439 129.29976 19358 ft 288 kts 287°
2026-04-21 10:58 44.58045 129.27338 19350 ft 288 kts 287°
2026-04-21 10:58 44.58659 129.24658 19339 ft 288 kts 287°
2026-04-21 10:59 44.59269 129.21982 19338 ft 289 kts 287°
2026-04-21 10:59 44.59876 129.19304 19347 ft 289 kts 287°
2026-04-21 10:59 44.60484 129.16599 19345 ft 289 kts 287°
2026-04-21 10:59 44.61078 129.13951 19337 ft 289 kts 287°
2026-04-21 11:00 44.61689 129.11238 19341 ft 288 kts 287°
2026-04-21 11:00 44.62284 129.08569 19342 ft 288 kts 287°
2026-04-21 11:00 44.62884 129.05899 19336 ft 288 kts 287°
2026-04-21 11:00 44.63481 129.03224 19340 ft 287 kts 287°
2026-04-21 11:01 44.64073 129.00557 19337 ft 288 kts 287°
2026-04-21 11:01 44.64667 128.97888 19335 ft 287 kts 287°
2026-04-21 11:01 44.65258 128.95221 19329 ft 288 kts 287°
2026-04-21 11:02 44.66448 128.89851 19319 ft 288 kts 287°
2026-04-21 11:02 44.67051 128.87138 19328 ft 288 kts 286°
2026-04-21 11:02 44.67635 128.84474 19330 ft 287 kts 287°
2026-04-21 11:02 44.68221 128.81818 19329 ft 286 kts 287°
2026-04-21 11:03 44.68810 128.79144 19327 ft 287 kts 287°
2026-04-21 11:03 44.69403 128.76469 19334 ft 287 kts 287°
2026-04-21 11:03 44.69993 128.73782 19343 ft 287 kts 287°
2026-04-21 11:03 44.70576 128.71133 19337 ft 286 kts 287°
2026-04-21 11:04 44.71157 128.68474 19328 ft 287 kts 287°
2026-04-21 11:04 44.71748 128.65770 19338 ft 287 kts 287°
2026-04-21 11:04 44.72335 128.63097 19336 ft 287 kts 287°
2026-04-21 11:04 44.72909 128.60451 19333 ft 287 kts 287°
2026-04-21 11:05 44.73500 128.57742 19330 ft 288 kts 287°
2026-04-21 11:05 44.74080 128.55067 19353 ft 288 kts 287°
2026-04-21 11:05 44.74663 128.52388 19346 ft 288 kts 287°
2026-04-21 11:05 44.75250 128.49692 19339 ft 288 kts 286°
2026-04-21 11:06 44.75832 128.47008 19342 ft 288 kts 287°
2026-04-21 11:06 44.76415 128.44302 19329 ft 288 kts 287°
2026-04-21 11:06 44.76997 128.41614 19334 ft 289 kts 287°
2026-04-21 11:06 44.77582 128.38908 19335 ft 289 kts 287°
2026-04-21 11:07 44.78154 128.36249 19332 ft 288 kts 287°
2026-04-21 11:07 44.78735 128.33553 19336 ft 288 kts 286°
2026-04-21 11:07 44.79312 128.30852 19332 ft 289 kts 286°
2026-04-21 11:07 44.79894 128.28126 19331 ft 288 kts 286°
2026-04-21 11:08 44.80468 128.25455 19339 ft 289 kts 287°
2026-04-21 11:08 44.81043 128.22766 19328 ft 288 kts 287°
2026-04-21 11:08 44.81622 128.20058 19339 ft 288 kts 287°
2026-04-21 11:08 44.82196 128.17377 19340 ft 288 kts 287°
2026-04-21 11:09 44.82777 128.14653 19342 ft 289 kts 286°
2026-04-21 11:09 44.83346 128.11974 19356 ft 289 kts 286°
2026-04-21 11:09 44.83927 128.09241 19350 ft 289 kts 287°
2026-04-21 11:09 44.84505 128.06523 19356 ft 289 kts 287°
2026-04-21 11:10 44.85077 128.03839 19364 ft 289 kts 286°
2026-04-21 11:10 44.85647 128.01146 19355 ft 289 kts 286°
2026-04-21 11:10 44.86226 127.98415 19367 ft 289 kts 286°
2026-04-21 11:10 44.86794 127.95718 19360 ft 289 kts 286°
2026-04-21 11:11 44.87365 127.93023 19366 ft 289 kts 287°
2026-04-21 11:11 44.87932 127.90318 19361 ft 289 kts 287°
2026-04-21 11:11 44.88507 127.87600 19354 ft 288 kts 286°
2026-04-21 11:11 44.89082 127.84879 19362 ft 289 kts 286°
2026-04-21 11:12 44.89647 127.82201 19350 ft 288 kts 286°
2026-04-21 11:12 44.90219 127.79472 19357 ft 289 kts 286°
2026-04-21 11:12 44.90789 127.76761 19353 ft 288 kts 286°
2026-04-21 11:12 44.91348 127.74071 19365 ft 289 kts 286°
2026-04-21 11:13 44.91916 127.71345 19363 ft 289 kts 286°
2026-04-21 11:13 44.92483 127.68631 19360 ft 289 kts 287°
2026-04-21 11:13 44.93045 127.65941 19361 ft 289 kts 286°
2026-04-21 11:13 44.93609 127.63231 19357 ft 289 kts 286°
2026-04-21 11:14 44.94175 127.60517 19354 ft 289 kts 286°
2026-04-21 11:14 44.94738 127.57800 19362 ft 290 kts 286°
2026-04-21 11:14 44.95305 127.55062 19343 ft 289 kts 286°
2026-04-21 11:14 44.95866 127.52344 19356 ft 290 kts 286°
2026-04-21 11:15 44.96429 127.49622 19374 ft 290 kts 287°
2026-04-21 11:15 44.96992 127.46891 19364 ft 289 kts 287°
2026-04-21 11:15 44.97554 127.44179 19353 ft 289 kts 286°
2026-04-21 11:15 44.98115 127.41449 19355 ft 290 kts 286°
2026-04-21 11:16 44.98668 127.38744 19352 ft 289 kts 286°
2026-04-21 11:16 44.99232 127.36005 19351 ft 289 kts 286°
2026-04-21 11:16 44.99786 127.33289 19358 ft 289 kts 285°
2026-04-21 11:16 45.00338 127.30572 19357 ft 289 kts 286°
2026-04-21 11:17 45.00886 127.27879 19365 ft 289 kts 285°
2026-04-21 11:17 45.01445 127.25145 19369 ft 289 kts 286°
2026-04-21 11:17 45.02008 127.22427 19363 ft 289 kts 288°
2026-04-21 11:17 45.02763 127.19788 19358 ft 290 kts 293°
2026-04-21 11:18 45.03733 127.17321 19371 ft 292 kts 299°
2026-04-21 11:18 45.04931 127.14973 19359 ft 295 kts 304°
2026-04-21 11:18 45.06287 127.12819 19356 ft 297 kts 307°
2026-04-21 11:18 45.07692 127.10664 19286 ft 299 kts 307°
2026-04-21 11:19 45.09094 127.08528 19014 ft 296 kts 307°
2026-04-21 11:19 45.10490 127.06406 18740 ft 295 kts 307°
2026-04-21 11:19 45.11903 127.04281 18482 ft 294 kts 308°
2026-04-21 11:19 45.13285 127.02200 18207 ft 293 kts 307°
2026-04-21 11:20 45.14690 127.00082 17937 ft 293 kts 307°
2026-04-21 11:20 45.16069 126.98000 17679 ft 292 kts 308°
2026-04-21 11:20 45.17466 126.95885 17409 ft 292 kts 308°
2026-04-21 11:20 45.18841 126.93802 17147 ft 292 kts 308°
2026-04-21 11:21 45.20233 126.91686 16885 ft 291 kts 308°
2026-04-21 11:21 45.21606 126.89602 16631 ft 290 kts 307°
2026-04-21 11:21 45.22985 126.87505 16383 ft 291 kts 307°
2026-04-21 11:21 45.24353 126.85420 16114 ft 291 kts 308°
2026-04-21 11:22 45.25732 126.83320 15857 ft 290 kts 308°
2026-04-21 11:22 45.27101 126.81233 15601 ft 291 kts 308°
2026-04-21 11:22 45.28467 126.79142 15348 ft 290 kts 308°
2026-04-21 11:22 45.29850 126.77029 15093 ft 290 kts 308°
2026-04-21 11:23 45.31220 126.74937 14830 ft 289 kts 308°
2026-04-21 11:23 45.32577 126.72869 14557 ft 288 kts 308°
2026-04-21 11:23 45.33929 126.70797 14291 ft 287 kts 308°
2026-04-21 11:23 45.35275 126.68728 13937 ft 286 kts 308°
2026-04-21 11:24 45.36622 126.66660 13520 ft 284 kts 309°
2026-04-21 11:24 45.37965 126.64599 13085 ft 282 kts 309°
2026-04-21 11:24 45.39284 126.62572 12653 ft 280 kts 309°
2026-04-21 11:24 45.40584 126.60574 12256 ft 278 kts 309°
2026-04-21 11:25 45.41904 126.58542 11826 ft 277 kts 309°
2026-04-21 11:25 45.43220 126.56512 11527 ft 281 kts 309°
2026-04-21 11:25 45.44552 126.54460 11484 ft 285 kts 309°
2026-04-21 11:25 45.45882 126.52409 11134 ft 284 kts 310°
2026-04-21 11:26 45.47235 126.50308 10286 ft 293 kts 310°
2026-04-21 11:26 45.48146 126.48885 9876 ft 294 kts 310°
2026-04-21 11:26 45.48647 126.48105 9729 ft 292 kts 310°
2026-04-21 11:26 45.49997 126.46006 9394 ft 284 kts 310°
2026-04-21 11:27 45.51314 126.43954 9348 ft 279 kts 310°
2026-04-21 11:27 45.52602 126.41948 9170 ft 270 kts 310°
2026-04-21 11:27 45.53858 126.39989 8936 ft 261 kts 310°
2026-04-21 11:27 45.55145 126.38300 8887 ft 249 kts 327°
2026-04-21 11:28 45.56792 126.37740 8889 ft 246 kts 356°
2026-04-21 11:28 45.58457 126.38413 8886 ft 259 kts 24°
2026-04-21 11:28 45.59918 126.40012 8896 ft 265 kts 33°
2026-04-21 11:28 45.61308 126.41682 8659 ft 263 kts 33°
2026-04-21 11:29 45.62700 126.43346 8292 ft 263 kts 33°
2026-04-21 11:29 45.64108 126.45016 7971 ft 261 kts 33°
2026-04-21 11:29 45.65487 126.46650 7652 ft 259 kts 33°
2026-04-21 11:29 45.66874 126.48292 7331 ft 257 kts 33°
2026-04-21 11:30 45.68255 126.49923 7003 ft 256 kts 33°
2026-04-21 11:30 45.69617 126.51531 6669 ft 254 kts 33°
2026-04-21 11:30 45.70966 126.53123 6362 ft 251 kts 33°
2026-04-21 11:30 45.72299 126.54700 6035 ft 250 kts 33°
2026-04-21 11:31 45.73645 126.56291 5722 ft 248 kts 33°
2026-04-21 11:31 45.74825 126.57693 5583 ft 240 kts 33°
2026-04-21 11:31 45.76093 126.59199 5420 ft 232 kts 33°
2026-04-21 11:31 45.77327 126.60609 5243 ft 223 kts 25°
2026-04-21 11:32 45.78732 126.61142 4967 ft 203 kts 345°
2026-04-21 11:32 45.79937 126.60316 4750 ft 193 kts 314°
2026-04-21 11:32 45.80214 126.59892 4689 ft 193 kts 309°
2026-04-21 11:32 45.80409 126.59538 4646 ft 194 kts 308°
2026-04-21 11:33 45.81115 126.58229 4442 ft 215 kts 309°
2026-04-21 11:33 45.82075 126.56526 4328 ft 222 kts 309°
2026-04-21 11:33 45.83064 126.54805 4243 ft 222 kts 310°
2026-04-21 11:33 45.83888 126.53023 4215 ft 216 kts 286°
2026-04-21 11:34 45.83810 126.50921 4212 ft 213 kts 243°
2026-04-21 11:34 45.82811 126.49391 4226 ft 214 kts 212°
2026-04-21 11:34 45.81516 126.48332 4227 ft 215 kts 210°
2026-04-21 11:34 45.80282 126.47243 4214 ft 201 kts 215°
2026-04-21 11:35 45.79196 126.46056 4211 ft 191 kts 220°
2026-04-21 11:35 45.78187 126.44840 4220 ft 191 kts 221°
2026-04-21 11:35 45.77173 126.43611 4223 ft 190 kts 220°
2026-04-21 11:35 45.76183 126.42427 4315 ft 181 kts 220°
2026-04-21 11:36 45.75222 126.41292 4234 ft 180 kts 220°
2026-04-21 11:36 45.74258 126.40163 3994 ft 176 kts 219°
2026-04-21 11:36 45.73333 126.39085 3765 ft 171 kts 219°
2026-04-21 11:36 45.72416 126.38018 3539 ft 166 kts 219°
2026-04-21 11:37 45.71540 126.37000 3322 ft 161 kts 219°
2026-04-21 11:37 45.70683 126.36003 3111 ft 156 kts 219°
2026-04-21 11:37 45.69855 126.35040 2904 ft 150 kts 219°
2026-04-21 11:37 45.69063 126.34111 2716 ft 148 kts 219°
2026-04-21 11:38 45.68255 126.33159 2523 ft 148 kts 219°
2026-04-21 11:38 45.67466 126.32236 2356 ft 148 kts 219°
2026-04-21 11:38 45.66695 126.31338 2144 ft 139 kts 219°
2026-04-21 11:38 45.65952 126.30475 1946 ft 135 kts 219°
2026-04-21 11:39 45.65223 126.29626 1762 ft 135 kts 219°
2026-04-21 11:39 45.64506 126.28791 1585 ft 134 kts 219°
2026-04-21 11:39 45.63775 126.27939 1406 ft 134 kts 219°
2026-04-21 11:39 45.63060 126.27105 1232 ft 134 kts 219°
2026-04-21 11:40 45.62338 126.26262 1055 ft 133 kts 219°
2026-04-21 11:40 45.61619 126.25422 880 ft 133 kts 219°
2026-04-21 11:40 45.60901 126.24593 699 ft 132 kts 218°
2026-04-21 11:40 45.60198 126.23773 542 ft 131 kts 219°
2026-04-21 11:41 45.59526 126.22981 510 ft 106 kts 218°
2026-04-21 11:41 45.59090 126.22472 510 ft 57 kts 219°
2026-04-21 11:41 45.58907 126.22174 510 ft 27 kts 246°
2026-04-21 11:41 45.58878 126.22006 510 ft 11 kts 304°
2026-04-21 11:42 45.58950 126.22018 510 ft 12 kts 39°
2026-04-21 11:42 45.59020 126.22101 510 ft 13 kts 39°
2026-04-21 11:42 45.59095 126.22191 510 ft 14 kts 38°
2026-04-21 11:42 45.59176 126.22282 510 ft 15 kts 39°
2026-04-21 11:43 45.59261 126.22385 510 ft 16 kts 40°
2026-04-21 11:43 45.59356 126.22494 510 ft 17 kts 38°
2026-04-21 11:43 45.59456 126.22609 510 ft 18 kts 39°
2026-04-21 11:43 45.59558 126.22733 510 ft 19 kts 41°
2026-04-21 11:44 45.59644 126.22789 510 ft 11 kts 327°
2026-04-21 11:44 45.59680 126.22732 510 ft 7 kts 310°
2026-04-21 11:44 45.59716 126.22671 510 ft 8 kts 309°
2026-04-21 11:44 45.59756 126.22599 510 ft 10 kts 309°
2026-04-21 11:45 45.59790 126.22566 510 ft 4 kts 30°
2026-04-21 11:45 45.59817 126.22603 510 ft 4 kts 39°
2026-04-21 11:45 45.59821 126.22607 510 ft 0 kts 39°